Regional Weather Roundup
Issued by NWS Columbia, SC

Home | Current Version | Previous Version | Text Only | Print | Product List | Glossary On
Versions: 1 2 3 4 5 6 7 8 9 10 11 12 13 14 15 16 17 18 19 20 21 22 23 24 25 26 27 28 29 30 31 32 33 34 35 36 37 38 39 40 41 42 43 44 45 46 47 48 49 50
000
ASUS42 KCAE 020310
RWRCAE
REGIONAL WEATHER ROUNDUP
NATIONAL WEATHER SERVICE COLUMBIA SC
1100 PM EDT SAT AUG 01 2015

NOTE: "FAIR" INDICATES FEW OR NO CLOUDS BELOW 12,000 FEET WITH NO
SIGNIFICANT WEATHER AND/OR OBSTRUCTIONS TO VISIBILITY.

NOT ALL STATIONS ARE QUALITY CONTROLLED BY THE NATIONAL
WEATHER SERVICE. USE DATA WITH CAUTION...ESPECIALLY
DEWPOINT OBSERVATIONS.

SCZ001>056-GAZ040-063>065-077-020400-
...UPSTATE SOUTH CAROLINA...

CITY           SKY/WX    TMP DP  RH WIND       PRES   REMARKS
ANDERSON       CLEAR     74  64  71 SW3       29.95R
SPARTANBURG      N/A     81  57  44 N3        29.95R
CLEMSON        CLEAR     81  59  47 N5        29.97R
GREENVILLE     CLEAR     79  55  43 N7        29.97R
GREENWOOD      CLEAR     72  61  68 CALM      29.95R
GREER          CLEAR     79  55  43 N8        29.95R
ROCK HILL      CLEAR     71  64  78 CALM      29.95R
CHESTER        PTCLDY    77  57  50 CALM      29.94S
LAURENS        CLEAR     72  64  78 N3        29.94S


...CENTRAL SOUTH CAROLINA...

CITY           SKY/WX    TMP DP  RH WIND       PRES   REMARKS
COLUMBIA APT   PTCLDY    83  69  62 S5        29.92R
COLUMBIA OWENS PTCLDY    83  70  64 S6        29.94R
DARLINGTON     PTCLDY    82  70  65 SW7       29.93S
FLORENCE       CLOUDY    79  74  84 S7        29.92S
MCENTIRE ANGB  MOCLDY    80  72  74 SW2       29.94R
ORANGEBURG     CLEAR     77  72  84 CALM      29.94R
SUMTER SHAW    PTCLDY    81  71  71 SW8       29.92R
NEWBERRY       CLEAR     77  64  65 S3        29.96R
AIKEN          MOCLDY    79  68  69 S3        29.98R
BARNWELL       FAIR      79  73  83 CALM      29.95R
MANNING        RAIN      79  72  78 S6        29.93R
CAMDEN         FAIR      82  72  69 S6        29.93S
LANCASTER      CLEAR     73  66  78 CALM      29.93S
WINNSBORO      CLEAR     79  61  53 SE5       29.93R


...EASTERN AND COASTAL SOUTH CAROLINA...

CITY           SKY/WX    TMP DP  RH WIND       PRES   REMARKS
MYRTLE BEACH   CLEAR     81  72  74 W3        29.95R
N MYRTLE BCH   CLEAR     81  73  76 SW9       29.92S
CONWAY         FAIR      75  73  94 CALM      29.93R FOG
MARION         FAIR      79  72  78 S6        29.93R
HARTSVILLE     FAIR      79  70  73 S3        29.92S
FLORENCE       CLOUDY    79  74  84 S7        29.92S
DARLINGTON     PTCLDY    82  70  65 SW7       29.93S
CHARLESTON APT PTCLDY    77  73  87 S6        29.93R
MOUNT PLEASANT LGT RAIN  75  75 100 CALM      29.93S
WALTERBORO     CLEAR     77  75  94 SE3       29.94R
BEAUFORT       PTCLDY    81  77  88 CALM      29.93R


...EASTERN GEORGIA...

CITY           SKY/WX    TMP DP  RH WIND       PRES   REMARKS
AUGUSTA BUSH F CLEAR     77  74  90 CALM      29.92R
AUGUSTA DANIEL PTCLDY    80  72  76 SE5       29.94R
THOMSON        CLEAR     80  74  82 CALM      29.97S
WASHINGTON     FAIR      81  72  74 CALM      29.94R
SYLVANIA       MOCLDY    76  76 100 CALM      29.94R
STATESBORO     PTCLDY    75  32  20 CALM      29.93R
SAVANNAH       PTCLDY    79  75  87 SE3       29.92R


...SOUTHERN NORTH CAROLINA...

CITY           SKY/WX    TMP DP  RH WIND       PRES   REMARKS
CHARLOTTE      CLEAR     84  53  34 E5        29.95R
MONROE         CLEAR     76  60  57 CALM      29.93S
WADESBORO      CLEAR     72  59  62 CALM      29.92R
ROCKINGHAM     CLEAR     77  60  56 CALM      29.92S
RUTHERFORDTON  CLEAR     73  57  56 CALM      29.98S
ASHEVILLE      CLEAR     69  57  65 N5        30.06R

$$


USA.gov is the U.S. government's official web portal to all federal, state and local government web resources and services.